Вернуться в каталог

STARLINK-11434

АктивенСвязьVLEO
NORAD 62420·PAYLOAD·🇺🇸 United States

Запущен Dec 23, 2024 с Cape Canaveral Space Force Station

Loading…

Ближайшие Пролёты (ближайшие 24 часа)

TLE

СвежийSource: CelesTrak SupGP

Эпоха: Sep 14, 2026, 20:48 UTC

1 62420C 24249M   26257.86715278 -.00025277  00000+0 -19640-3 0  2575
2 62420  42.9999 107.5900 0001562 279.2957 335.4308 15.70841442    18

Отслеживайте STARLINK-11434 в реальном времени с AllMySat

Download on the App Store